Meadville, PA

12:47 AM EST on November 25, 2017 (GMT -0500)
Port Meadville

Weather History for KGKJ - November, 2013

Change the Weather History Date:

Wednesday, November 6, 2013

  Actual Average Record
Temperature  
Mean Temperature 54 °F -  
Max Temperature 66 °F 51 °F 76 °F (1948)
Min Temperature 43 °F 33 °F 10 °F (1951)
Degree Days  
Heating Degree Days 10    
Growing Degree Days 4 (Base 50)    
Moisture  
Dew Point 44 °F    
Average Humidity 69    
Maximum Humidity 94    
Minimum Humidity 44    
Precipitation  
Precipitation 0.34 in - - ()
Sea Level Pressure  
Sea Level Pressure 30.05 in    
Wind  
Wind Speed 7 mph (SSW)    
Max Wind Speed 16 mph    
Max Gust Speed 24 mph    
Visibility 9 miles    
Events Rain    
Averages and records for this station are not official NWS values.
T = Trace of Precipitation, MM = Missing Value Source: NWS Daily Summary

Daily Weather History Graph

Daily Weather History Graph

Search for Another Location

Airport or City:

Trip Planner

Search our weather history database for the weather conditions in past years. The results will help you decide how hot, cold, wet, or windy it might be!

Date:

Astronomy

Nov. 06, 2013 Rise Set
Actual Time 6:59 AM EST 5:09 PM EST
Civil Twilight 6:29 AM EST 5:38 PM EST
Nautical Twilight 5:56 AM EST 6:11 PM EST
Astronomical Twilight 5:24 AM EST 6:43 PM EST
Moon 10:13 AM EST (11/6) 8:10 PM EST (11/6)
Length of Visible Light 11h 08m
Length of Day
10h 10m
Waxing Crescent, 13% of the Moon is Illuminated
Nov 6
Waxing Crescent
Nov 10
First Quarter
Nov 17
Full
Nov 25
Last Quarter
Dec 2
New

Hourly Weather History & Observations

Time (EST) Temp. Windchill Dew Point Humidity Pressure Visibility Wind Dir Wind Speed Gust Speed Precip Events Conditions
12:53 AM 45.0 °F 42.6 °F 24.1 °F 44% 30.29 in 10.0 mi Variable 4.6 mph - N/A   Clear
1:53 AM 43.0 °F - 24.1 °F 47% 30.28 in 10.0 mi Calm Calm - N/A   Clear
2:53 AM 44.1 °F 41.5 °F 25.0 °F 47% 30.25 in 10.0 mi Variable 4.6 mph - N/A   Partly Cloudy
3:53 AM 44.1 °F 42.5 °F 26.1 °F 49% 30.24 in 10.0 mi Variable 3.5 mph - N/A   Clear
4:53 AM 45.0 °F 41.8 °F 28.9 °F 53% 30.23 in 10.0 mi South 5.8 mph - N/A   Mostly Cloudy
5:53 AM 45.0 °F 41.8 °F 30.9 °F 58% 30.21 in 10.0 mi Variable 5.8 mph - N/A   Clear
6:53 AM 46.0 °F 43.9 °F 32.0 °F 58% 30.20 in 10.0 mi Variable 4.6 mph - N/A   Clear
7:53 AM 46.9 °F - 34.0 °F 61% 30.18 in 10.0 mi South 6.9 mph - N/A   Clear
8:53 AM 50.0 °F - 37.0 °F 61% 30.16 in 10.0 mi South 5.8 mph - N/A   Clear
9:53 AM 53.1 °F - 39.9 °F 61% 30.13 in 10.0 mi Variable 5.8 mph - N/A   Partly Cloudy
10:53 AM 57.0 °F - 42.1 °F 57% 30.12 in 10.0 mi South 8.1 mph 17.3 mph N/A   Overcast
11:53 AM 59.0 °F - 42.1 °F 53% 30.10 in 10.0 mi South 9.2 mph 19.6 mph N/A   Overcast
12:53 PM 63.0 °F - 45.0 °F 52% 30.05 in 10.0 mi South 9.2 mph 17.3 mph N/A   Mostly Cloudy
1:53 PM 64.0 °F - 46.0 °F 52% 30.02 in 10.0 mi South 12.7 mph 20.7 mph N/A   Mostly Cloudy
2:53 PM 66.0 °F - 46.9 °F 50% 29.98 in 10.0 mi SSW 10.4 mph 20.7 mph N/A   Overcast
3:53 PM 64.9 °F - 46.9 °F 52% 29.95 in 10.0 mi South 11.5 mph - N/A   Overcast
4:53 PM 64.9 °F - 48.0 °F 54% 29.93 in 10.0 mi South 11.5 mph 19.6 mph N/A   Overcast
5:53 PM 62.1 °F - 51.1 °F 67% 29.93 in 10.0 mi SSW 16.1 mph 24.2 mph 0.00 in Rain Light Rain
6:53 PM 59.0 °F - 53.1 °F 81% 29.94 in 10.0 mi SSW 8.1 mph 16.1 mph 0.02 in Rain Light Rain
7:37 PM 57.2 °F - 55.4 °F 94% 29.95 in 5.0 mi SW 9.2 mph - 0.05 in Rain Light Rain
7:51 PM 57.2 °F - 55.4 °F 94% 29.94 in 7.0 mi SW 9.2 mph 18.4 mph 0.06 in Rain Light Rain
7:53 PM 57.0 °F - 55.0 °F 93% 29.94 in 8.0 mi SW 6.9 mph 18.4 mph 0.06 in Rain Light Rain
8:02 PM 57.2 °F - 55.4 °F 94% 29.93 in 6.0 mi SW 9.2 mph 17.3 mph 0.00 in Rain Light Rain
8:53 PM 57.0 °F - 55.0 °F 93% 29.92 in 10.0 mi SSW 11.5 mph 17.3 mph 0.06 in Rain Light Rain
9:53 PM 57.0 °F - 55.0 °F 93% 29.91 in 10.0 mi SW 8.1 mph - 0.02 in Rain Light Rain
10:11 PM 57.2 °F - 55.4 °F 94% 29.90 in 10.0 mi SSW 6.9 mph 18.4 mph 0.01 in Rain Light Rain
10:53 PM 57.0 °F - 55.0 °F 93% 29.89 in 3.0 mi WSW 5.8 mph - 0.06 in Rain Heavy Rain
11:53 PM 57.0 °F - 55.0 °F 93% 29.87 in 3.0 mi WSW 10.4 mph 17.3 mph 0.12 in Rain Rain
11:59 PM 57.2 °F - 55.4 °F 94% 29.88 in 1.8 mi West 10.4 mph - 0.10 in Rain Heavy Rain